TimePST,TemperatureF,Dew PointF,Humidity,Sea Level PressureIn,VisibilityMPH,Wind Direction,Wind SpeedMPH,Gust SpeedMPH,PrecipitationIn,Events,Conditions,WindDirDegrees,DateUTC
12:00 AM,33.8,30.2,87,29.80,9.0,SSE,18.4,28.8,0.00,Snow,Light Snow,160,2013-03-06 08:00:00
12:18 AM,33.8,28.4,81,29.80,2.0,South,19.6,39.1,0.00,Snow,Light Snow,170,2013-03-06 08:18:00
12:21 AM,33.8,28.4,81,29.80,1.8,South,16.1,31.1,0.00,Snow,Light Snow,180,2013-03-06 08:21:00
12:24 AM,33.8,30.2,87,29.80,1.2,South,21.9,32.2,0.00,Snow,Light Snow,180,2013-03-06 08:24:00
12:27 AM,33.8,30.2,87,29.80,0.8,South,21.9,38.0,0.00,Snow,Light Snow,170,2013-03-06 08:27:00
12:35 AM,32.0,30.2,93,29.80,0.5,South,25.3,38.0,0.00,Fog-Snow,Snow,180,2013-03-06 08:35:00
12:37 AM,32.0,30.2,93,29.80,0.2,South,20.7,35.7,0.00,Fog-Snow,Snow,170,2013-03-06 08:37:00
12:52 AM,30.9,30.9,100,29.78,0.2,South,18.4,32.2,0.00,Fog-Snow,Heavy Snow,170,2013-03-06 08:52:00
1:21 AM,30.2,30.2,100,29.80,0.5,SSE,23.0,29.9,0.04,Fog-Snow,Snow,160,2013-03-06 09:21:00
1:52 AM,30.0,30.0,100,29.78,0.5,SSE,21.9,29.9,0.08,Fog-Snow,Snow,160,2013-03-06 09:52:00
2:52 AM,30.0,30.0,100,29.76,0.5,South,25.3,38.0,0.01,Fog-Snow,Snow,170,2013-03-06 10:52:00
3:52 AM,30.0,30.0,100,29.75,0.5,South,21.9,38.0,0.06,Fog-Snow,Snow,170,2013-03-06 11:52:00
4:40 AM,30.2,30.2,100,29.76,0.2,South,21.9,31.1,0.02,Fog-Snow,Snow,170,2013-03-06 12:40:00
4:48 AM,30.2,30.2,100,29.75,0.5,South,23.0,31.1,0.04,Fog-Snow,Snow,180,2013-03-06 12:48:00
4:52 AM,30.9,30.0,96,29.75,0.2,South,17.3,31.1,0.05,Fog-Snow,Snow,180,2013-03-06 12:52:00
5:05 AM,30.2,30.2,100,29.77,0.5,SSW,11.5,31.1,0.02,Fog-Snow,Snow,210,2013-03-06 13:05:00
5:52 AM,28.9,28.0,96,29.80,0.5,South,20.7,36.8,0.09,Fog-Snow,Snow,190,2013-03-06 13:52:00
6:52 AM,28.9,28.9,100,29.84,0.5,SSW,17.3,29.9,0.11,Fog-Snow,Snow,210,2013-03-06 14:52:00
7:16 AM,28.4,28.4,100,29.83,0.2,SSW,23.0,41.4,0.02,Fog-Snow,Light Snow,210,2013-03-06 15:16:00
7:52 AM,28.0,27.0,96,29.89,0.8,SSW,21.9,35.7,0.02,Snow,Light Snow,210,2013-03-06 15:52:00
7:56 AM,28.4,26.6,93,29.86,1.5,SSW,16.1,35.7,0.00,Snow,Light Snow,200,2013-03-06 15:56:00
8:02 AM,28.4,26.6,93,29.86,3.0,South,20.7,32.2,0.00,,Overcast,190,2013-03-06 16:02:00
8:15 AM,28.4,26.6,93,29.87,1.8,SSW,18.4,39.1,0.00,Snow,Light Snow,210,2013-03-06 16:15:00
8:20 AM,28.4,26.6,93,29.88,0.8,SSW,17.3,39.1,0.00,Snow,Light Snow,200,2013-03-06 16:20:00
8:36 AM,28.4,26.6,93,29.89,2.0,SSW,18.4,28.8,0.03,Snow,Light Snow,210,2013-03-06 16:36:00
8:49 AM,28.4,26.6,93,29.90,1.5,SSW,19.6,28.8,0.03,Snow,Light Snow,210,2013-03-06 16:49:00
8:52 AM,28.0,27.0,96,29.93,2.5,SSW,11.5,28.8,0.05,Snow,Light Snow,210,2013-03-06 16:52:00
8:57 AM,28.4,26.6,93,29.90,1.2,SW,11.5,28.8,0.01,Snow,Light Snow,220,2013-03-06 16:57:00
9:07 AM,28.4,26.6,93,29.91,2.0,South,21.9,28.8,0.01,Snow,Light Snow,190,2013-03-06 17:07:00
9:14 AM,28.4,26.6,93,29.92,8.0,South,17.3,31.1,0.01,,Overcast,190,2013-03-06 17:14:00
9:29 AM,28.4,26.6,93,29.92,0.8,South,13.8,27.6,0.01,Snow,Light Snow,180,2013-03-06 17:29:00
9:39 AM,28.4,28.4,100,29.92,0.2,SSW,15.0,23.0,0.01,Fog-Snow,Light Snow,200,2013-03-06 17:39:00
9:50 AM,28.4,26.6,93,29.92,0.5,South,15.0,21.9,0.02,Fog-Snow,Light Snow,180,2013-03-06 17:50:00
9:52 AM,28.0,27.0,96,29.96,0.5,South,16.1,24.2,0.03,Fog-Snow,Snow,190,2013-03-06 17:52:00
10:03 AM,28.4,26.6,93,29.93,1.5,SSW,15.0,27.6,0.00,Snow,Light Snow,210,2013-03-06 18:03:00
10:23 AM,28.4,26.6,93,29.93,0.8,South,20.7,26.5,0.02,Snow,Light Snow,180,2013-03-06 18:23:00
10:35 AM,28.4,26.6,93,29.94,1.8,SSW,11.5,31.1,0.02,,Overcast,200,2013-03-06 18:35:00
10:37 AM,28.4,26.6,93,29.93,5.0,SSW,12.7,31.1,0.02,,Overcast,200,2013-03-06 18:37:00
10:52 AM,28.0,27.0,96,29.97,2.0,SSW,13.8,26.5,0.02,Snow,Light Snow,210,2013-03-06 18:52:00
11:03 AM,28.4,26.6,93,29.94,0.8,South,11.5,24.2,0.00,Snow,Light Snow,190,2013-03-06 19:03:00
11:08 AM,28.4,26.6,93,29.95,0.2,South,13.8,24.2,0.01,Fog-Snow,Snow,190,2013-03-06 19:08:00
11:25 AM,28.4,26.6,93,29.96,0.5,SSW,13.8,27.6,0.02,Fog-Snow,Light Snow,210,2013-03-06 19:25:00
11:34 AM,28.4,28.4,100,29.96,2.0,South,16.1,24.2,0.02,,Overcast,180,2013-03-06 19:34:00
11:41 AM,28.4,28.4,100,29.96,5.0,SSW,11.5,28.8,0.03,,Overcast,210,2013-03-06 19:41:00
11:52 AM,28.9,27.0,92,30.00,10.0,South,13.8,23.0,0.03,,Overcast,190,2013-03-06 19:52:00
12:03 PM,28.4,26.6,93,29.97,1.5,South,12.7,21.9,0.00,Snow,Light Snow,180,2013-03-06 20:03:00
12:08 PM,28.4,26.6,93,29.97,0.8,South,16.1,21.9,0.00,Snow,Light Snow,180,2013-03-06 20:08:00
12:23 PM,28.4,28.4,100,29.97,1.5,SSW,11.5,19.6,0.03,Snow,Light Snow,210,2013-03-06 20:23:00
12:25 PM,28.4,28.4,100,29.97,3.0,South,11.5,18.4,0.03,Snow,Light Snow,190,2013-03-06 20:25:00
12:31 PM,28.4,28.4,100,29.97,1.5,SSW,8.1,23.0,0.03,Snow,Light Snow,200,2013-03-06 20:31:00
12:35 PM,28.4,28.4,100,29.97,0.8,South,9.2,23.0,0.04,Snow,Light Snow,190,2013-03-06 20:35:00
12:52 PM,28.0,27.0,96,30.02,0.5,SSW,9.2,28.8,0.05,Fog-Snow,Snow,200,2013-03-06 20:52:00
1:06 PM,28.4,26.6,93,29.97,1.8,SSW,15.0,23.0,0.02,Snow,Light Snow,210,2013-03-06 21:06:00
1:09 PM,28.4,26.6,93,29.98,3.0,SSW,13.8,21.9,0.02,Snow,Light Snow,200,2013-03-06 21:09:00
1:25 PM,28.4,28.4,100,29.98,1.0,South,9.2,-,0.03,,Overcast,190,2013-03-06 21:25:00
1:30 PM,28.4,28.4,100,29.98,0.2,South,11.5,-,0.03,Fog,Light Freezing Fog,180,2013-03-06 21:30:00
1:38 PM,28.4,28.4,100,29.98,1.2,South,12.7,19.6,0.03,Snow,Light Snow,170,2013-03-06 21:38:00
1:40 PM,28.4,28.4,100,29.98,3.0,SW,12.7,19.6,0.03,Snow,Light Snow,220,2013-03-06 21:40:00
1:49 PM,30.2,26.6,86,29.98,1.5,South,10.4,20.7,0.04,Snow,Light Snow,170,2013-03-06 21:49:00
1:52 PM,28.9,28.0,96,30.03,0.8,SSE,15.0,19.6,0.05,Snow,Light Snow,160,2013-03-06 21:52:00
2:01 PM,28.4,28.4,100,29.97,1.5,South,10.4,28.8,0.00,Snow,Light Snow,190,2013-03-06 22:01:00
2:03 PM,28.4,28.4,100,29.97,3.0,South,10.4,28.8,0.00,Snow,Light Snow,190,2013-03-06 22:03:00
2:18 PM,30.2,28.4,93,29.97,10.0,South,10.4,-,0.00,,Overcast,180,2013-03-06 22:18:00
2:52 PM,30.0,28.0,92,30.03,10.0,South,10.4,21.9,0.00,,Overcast,170,2013-03-06 22:52:00
3:09 PM,28.4,26.6,93,29.98,1.8,SSE,13.8,21.9,0.00,Snow,Light Snow,150,2013-03-06 23:09:00
3:12 PM,28.4,26.6,93,29.98,0.8,SSE,12.7,21.9,0.00,Snow,Light Snow,150,2013-03-06 23:12:00
3:37 PM,28.4,28.4,100,29.98,1.8,SSE,11.5,21.9,0.01,Snow,Light Snow,150,2013-03-06 23:37:00
3:41 PM,30.2,28.4,93,29.98,3.0,SSE,11.5,21.9,0.01,Snow,Light Snow,160,2013-03-06 23:41:00
3:52 PM,30.0,27.0,88,30.03,9.0,SSE,10.4,19.6,0.01,,Overcast,160,2013-03-06 23:52:00
4:52 PM,30.0,28.0,92,30.01,7.0,South,10.4,-,0.00,Snow,Light Snow,170,2013-03-07 00:52:00
5:06 PM,30.2,28.4,93,29.97,9.0,SSE,13.8,-,0.00,,Overcast,160,2013-03-07 01:06:00
5:14 PM,30.2,28.4,93,29.97,1.8,SSE,10.4,-,0.00,,Overcast,160,2013-03-07 01:14:00
5:17 PM,30.2,28.4,93,29.96,0.8,SSE,10.4,-,0.00,,Overcast,160,2013-03-07 01:17:00
5:33 PM,30.2,28.4,93,29.96,1.8,South,10.4,-,0.00,,Overcast,180,2013-03-07 01:33:00
5:44 PM,28.4,28.4,100,29.96,1.2,South,9.2,-,0.00,,Overcast,170,2013-03-07 01:44:00
5:46 PM,28.4,28.4,100,29.96,2.5,South,11.5,-,0.00,,Overcast,170,2013-03-07 01:46:00
5:52 PM,30.0,28.9,96,30.02,9.0,South,8.1,-,0.00,,Overcast,170,2013-03-07 01:52:00
6:30 PM,30.2,28.4,93,29.97,1.5,South,10.4,-,N/A,,Overcast,180,2013-03-07 02:30:00
6:40 PM,30.2,28.4,93,29.97,1.0,South,8.1,-,N/A,,Overcast,170,2013-03-07 02:40:00
6:52 PM,28.9,28.9,100,30.03,2.0,SSE,8.1,-,N/A,,Overcast,160,2013-03-07 02:52:00
6:59 PM,28.4,28.4,100,29.96,5.0,SSE,9.2,-,N/A,,Overcast,160,2013-03-07 02:59:00
7:06 PM,30.2,28.4,93,29.96,1.8,South,9.2,-,N/A,,Overcast,170,2013-03-07 03:06:00
7:17 PM,28.4,28.4,100,29.96,3.0,South,8.1,-,N/A,,Overcast,170,2013-03-07 03:17:00
7:52 PM,28.9,28.9,100,30.02,5.0,South,4.6,-,N/A,,Overcast,190,2013-03-07 03:52:00
8:45 PM,28.4,28.4,100,29.95,7.0,South,4.6,-,0.00,,Overcast,170,2013-03-07 04:45:00
8:52 PM,28.9,28.0,96,30.01,3.0,South,3.5,-,0.00,,Overcast,180,2013-03-07 04:52:00
8:56 PM,28.4,28.4,100,29.95,1.8,Calm,Calm,-,N/A,,Overcast,0,2013-03-07 04:56:00
9:04 PM,28.4,26.6,93,29.95,1.0,SSE,3.5,-,N/A,,Overcast,150,2013-03-07 05:04:00
9:08 PM,28.4,26.6,93,29.95,2.0,Calm,Calm,-,N/A,,Overcast,0,2013-03-07 05:08:00
9:16 PM,28.4,26.6,93,29.95,4.0,Calm,Calm,-,N/A,,Overcast,0,2013-03-07 05:16:00
9:33 PM,28.4,26.6,93,29.95,1.8,Calm,Calm,-,N/A,,Overcast,0,2013-03-07 05:33:00
9:48 PM,28.4,28.4,100,29.95,1.2,Calm,Calm,-,N/A,,Overcast,0,2013-03-07 05:48:00
9:52 PM,28.9,28.0,96,30.01,1.5,Calm,Calm,-,N/A,,Overcast,0,2013-03-07 05:52:00
9:58 PM,28.4,28.4,100,29.95,3.0,Calm,Calm,-,N/A,,Overcast,0,2013-03-07 05:58:00
10:14 PM,28.4,28.4,100,29.95,9.0,Calm,Calm,-,N/A,,Overcast,0,2013-03-07 06:14:00
10:38 PM,28.4,28.4,100,29.94,10.0,Calm,Calm,-,N/A,,Overcast,0,2013-03-07 06:38:00
10:52 PM,28.9,28.0,96,30.01,10.0,Calm,Calm,-,N/A,,Overcast,0,2013-03-07 06:52:00
11:13 PM,28.4,26.6,93,29.93,10.0,Calm,Calm,-,N/A,,Overcast,0,2013-03-07 07:13:00
11:52 PM,28.9,27.0,92,29.99,10.0,Variable,3.5,-,0.00,,Overcast,0,2013-03-07 07:52:00